Retour au catalogue

THORAD AGENA D DEB

LostSSO
NORAD 42504·DEBRIS·🇺🇸 United States

Lancé Apr 8, 1970 depuis Vandenberg Space Force Base

Loading…

Prochains Passages (prochaines 24 heures)

TLE

PériméSource: Space-Track

Époque: May 14, 2024, 04:05 UTC

1 42504U 70025RJ  24135.17029466  .00007546  00000-0  37280-2 0  9993
2 42504  98.9792 206.9275 0083704 106.7998 254.2378 14.15838073487150

Suivez THORAD AGENA D DEB en temps réel avec AllMySat

Download on the App Store